Weather History for KMRC - March, 2013

Change the Weather History Date:

Saturday, March 30, 2013

  Actual Average (KBNA) Record (KBNA)
Temperature  
Mean Temperature 54 °F 54 °F  
Max Temperature 60 °F 66 °F 84 °F (1963)
Min Temperature 48 °F 43 °F 21 °F (1964)
Degree Days  
Heating Degree Days 11    
Month to date heating degree days  
Since 1 July heating degree days  
Cooling Degree Days 0    
Month to date cooling degree days  
Year to date cooling degree days  
Growing Degree Days 4 (Base 50)    
Moisture  
Dew Point 54 °F    
Average Humidity 92    
Maximum Humidity 100    
Minimum Humidity 77    
Precipitation  
Precipitation 0.00 in 0.13 in 1.50 in (1914)
Month to date precipitation 3.97  
Year to date precipitation 11.66  
Snow  
Snow 0.00 in 0.00 in 1.60 in (1987)
Month to date snowfall 0.9  
Since 1 July snowfall 6.3  
Snow Depth -    
Sea Level Pressure  
Sea Level Pressure 30.08 in    
Wind  
Wind Speed 2 mph (ESE)    
Max Wind Speed 8 mph    
Max Gust Speed -    
Visibility 8 miles    
Events      
T = Trace of Precipitation, MM = Missing Value Source: NWS Daily Summary

Daily Weather History Graph

Daily Weather History Graph

Search for Another Location

Airport or City:

Trip Planner

Search our weather history database for the weather conditions in past years. The results will help you decide how hot, cold, wet, or windy it might be!

Date:

Astronomy

Mar. 30, 2013 Rise Set
Actual Time 6:37 AM CDT 7:08 PM CDT
Civil Twilight 6:12 AM CDT 7:34 PM CDT
Nautical Twilight 5:42 AM CDT 8:04 PM CDT
Astronomical Twilight 5:11 AM CDT 8:35 PM CDT
Moon 11:06 PM CDT (3/30) 8:40 AM CDT (3/30)
Length of Visible Light 13h 22m
Length of Day
12h 31m
Waning Gibbous, 86% of the Moon is Illuminated
Mar 30
Waning Gibbous
Apr 2
Last Quarter
Apr 10
New
Apr 18
First Quarter
Apr 25
Full

Hourly Weather History & Observations

Time (CDT) Temp. Dew Point Humidity Pressure Visibility Wind Dir Wind Speed Gust Speed Precip Events Conditions
12:35 AM - - N/A% 30.18 in 6.0 mi Calm Calm - N/A   Overcast
12:55 AM - - N/A% 30.18 in 6.0 mi Calm Calm - N/A   Overcast
1:15 AM - - N/A% 30.18 in 5.0 mi Calm Calm - N/A   Overcast
1:35 AM - - N/A% 30.18 in 2.5 mi Calm Calm - N/A   Overcast
1:55 AM - - N/A% 30.18 in 2.0 mi Calm Calm - N/A   Overcast
2:15 AM - - N/A% 30.18 in 2.5 mi Calm Calm - N/A   Overcast
2:35 AM - - N/A% 30.17 in 3.0 mi East 3.5 mph - N/A   Overcast
2:55 AM - - N/A% 30.17 in 7.0 mi Calm Calm - N/A   Overcast
3:15 AM - - N/A% 30.16 in 7.0 mi Calm Calm - N/A   Overcast
3:35 AM - - N/A% 30.15 in 8.0 mi Calm Calm - N/A   Overcast
3:55 AM - - N/A% 30.14 in 8.0 mi Calm Calm - N/A   Overcast
4:15 AM - - N/A% 30.15 in 9.0 mi Calm Calm - N/A   Overcast
4:35 AM - - N/A% 30.14 in 7.0 mi NE 3.5 mph - N/A   Overcast
4:55 AM - - N/A% 30.14 in 4.0 mi Calm Calm - N/A   Overcast
5:15 AM - - N/A% 30.14 in 5.0 mi ENE 3.5 mph - N/A   Overcast
5:35 AM - - N/A% 30.15 in 6.0 mi Calm Calm - N/A   Overcast
5:55 AM - - N/A% 30.16 in 5.0 mi NE 3.5 mph - N/A   Overcast
6:15 AM - - N/A% 30.15 in 6.0 mi NE 4.6 mph - N/A   Overcast
6:35 AM - - N/A% 30.16 in 5.0 mi ENE 4.6 mph - N/A   Overcast
6:55 AM - - N/A% 30.16 in 5.0 mi NE 3.5 mph - N/A   Overcast
7:15 AM - - N/A% 30.17 in 8.0 mi NNE 5.8 mph - N/A   Overcast
7:35 AM - - N/A% 30.17 in 7.0 mi NE 5.8 mph - N/A   Overcast
7:55 AM - - N/A% 30.17 in 6.0 mi ENE 5.8 mph - N/A   Overcast
8:15 AM - - N/A% 30.16 in 5.0 mi ENE 5.8 mph - N/A   Overcast
8:35 AM - - N/A% 30.16 in 7.0 mi East 6.9 mph - N/A   Overcast
8:55 AM - - N/A% 30.16 in 9.0 mi East 5.8 mph - N/A   Overcast
9:15 AM 48.2 °F 48.2 °F 100% 30.16 in 10.0 mi East 5.8 mph - N/A   Overcast
9:35 AM 48.2 °F 48.2 °F 100% 30.16 in 10.0 mi ENE 4.6 mph - N/A   Overcast
9:55 AM 50.0 °F 50.0 °F 100% 30.16 in 10.0 mi ENE 6.9 mph - N/A   Overcast
10:15 AM 51.8 °F 51.8 °F 100% 30.15 in 10.0 mi ENE 6.9 mph - N/A   Overcast
10:35 AM 51.8 °F 51.8 °F 100% 30.14 in 10.0 mi NE 4.6 mph - N/A   Mostly Cloudy
10:55 AM 53.6 °F 53.6 °F 100% 30.14 in 10.0 mi ENE 4.6 mph - N/A   Overcast
11:15 AM 53.6 °F 53.6 °F 100% 30.13 in 10.0 mi ENE 3.5 mph - N/A   Scattered Clouds
11:35 AM 55.4 °F 55.4 °F 100% 30.12 in 10.0 mi ENE 5.8 mph - N/A   Clear
11:55 AM 57.2 °F 55.4 °F 94% 30.11 in 10.0 mi Calm Calm - N/A   Clear
12:15 PM 57.2 °F 55.4 °F 94% 30.11 in 10.0 mi Calm Calm - N/A   Clear
12:35 PM 57.2 °F 55.4 °F 94% 30.10 in 10.0 mi ENE 3.5 mph - N/A   Clear
12:55 PM 59.0 °F 55.4 °F 88% 30.09 in 10.0 mi Calm Calm - N/A   Clear
1:15 PM 60.8 °F 53.6 °F 77% 30.08 in 10.0 mi ENE 3.5 mph - N/A   Clear
1:35 PM 60.8 °F 53.6 °F 77% 30.07 in 10.0 mi Calm Calm - N/A   Clear
1:55 PM 60.8 °F 53.6 °F 77% 30.06 in 10.0 mi NNE 3.5 mph - N/A   Clear
2:15 PM 60.8 °F 53.6 °F 77% 30.05 in 10.0 mi Calm Calm - N/A   Scattered Clouds
2:35 PM 60.8 °F 53.6 °F 77% 30.05 in 10.0 mi North 3.5 mph - N/A   Scattered Clouds
2:55 PM 60.8 °F 53.6 °F 77% 30.05 in 10.0 mi Calm Calm - N/A   Scattered Clouds
3:15 PM 60.8 °F 53.6 °F 77% 30.05 in 10.0 mi Variable 3.5 mph - N/A   Overcast
3:35 PM 57.2 °F 57.2 °F 100% 30.04 in 4.0 mi SW 6.9 mph - N/A   Overcast
3:55 PM 57.2 °F 57.2 °F 100% 30.03 in 3.0 mi South 3.5 mph - N/A   Overcast
4:15 PM 55.4 °F 55.4 °F 100% 30.02 in 2.5 mi SE 3.5 mph - N/A   Overcast
4:35 PM 55.4 °F 55.4 °F 100% 30.02 in 4.0 mi Calm Calm - N/A   Overcast
4:55 PM - - N/A% 30.02 in 5.0 mi Calm Calm - N/A   Mostly Cloudy
5:15 PM - - N/A% 30.01 in 6.0 mi Calm Calm - N/A   Overcast
5:35 PM - - N/A% 30.01 in 4.0 mi South 4.6 mph - N/A   Overcast
5:55 PM - - N/A% 30.00 in 5.0 mi South 3.5 mph - N/A   Overcast
6:15 PM - - N/A% 30.00 in 7.0 mi South 3.5 mph - N/A   Overcast
6:35 PM - - N/A% 29.98 in 4.0 mi South 4.6 mph - N/A   Overcast
6:55 PM - - N/A% 29.98 in 10.0 mi South 6.9 mph - N/A   Overcast
7:15 PM - - N/A% 29.96 in 10.0 mi SSE 4.6 mph - N/A   Overcast
7:35 PM - - N/A% 29.97 in 10.0 mi Calm Calm - N/A   Overcast
7:55 PM - - N/A% 29.96 in 10.0 mi South 4.6 mph - N/A   Overcast
8:15 PM - - N/A% 29.95 in 10.0 mi SSE 6.9 mph - N/A   Overcast
8:35 PM - - N/A% 29.95 in 10.0 mi South 3.5 mph - N/A   Overcast
8:55 PM - - N/A% 29.95 in 10.0 mi South 3.5 mph - N/A   Overcast
9:15 PM - - N/A% 29.95 in 10.0 mi SSE 5.8 mph - N/A   Overcast
9:35 PM - - N/A% 29.96 in 6.0 mi SW 8.1 mph - N/A   Overcast
9:55 PM - - N/A% 29.96 in 8.0 mi SSW 4.6 mph - N/A   Overcast
10:15 PM - - N/A% 29.96 in 5.0 mi SSW 4.6 mph - N/A   Overcast
10:35 PM - - N/A% 29.95 in 6.0 mi South 3.5 mph - N/A   Overcast
10:55 PM - - N/A% 29.94 in 10.0 mi South 5.8 mph - N/A   Overcast
11:15 PM - - N/A% 29.94 in 10.0 mi South 5.8 mph - N/A   Overcast
11:35 PM - - N/A% 29.94 in 10.0 mi SSW 8.1 mph - N/A   Overcast
11:55 PM - - N/A% 29.93 in 10.0 mi SW 5.8 mph - N/A   Overcast